{"data":{"norad_id":60415,"intl_designator":"2024-141T","name":"STARLINK-32265","alt_names":[],"object_type":"PAYLOAD","status":"ACTIVE","operator":null,"country":"US","launch_date":"2024-08-10","launch_site_code":"AFETR","launch_vehicle":null,"mission":null,"orbit_class":"UNKNOWN","rcs_meters":null,"size_class":null,"mass_kg":null,"dimensions":null,"purposes":["comms"],"wikipedia_slug":null,"has_3d_model":false,"image_url":null,"decayed_at":null,"tle_current":{"epoch":"2026-05-24T23:52:19.670304Z","epoch_age_seconds":68810,"freshness":"FRESH","line1":"1 60415U 24141T   26144.99467211 -.00000401  00000+0 -74166-6 0  9990","line2":"2 60415  53.1613 247.4201 0000927 106.2109 253.8996 15.34392083101275","mean_motion":15.34392083,"eccentricity":9.27e-5,"inclination_deg":53.1613,"raan_deg":247.4201,"arg_perigee_deg":106.2109,"mean_anomaly_deg":253.8996,"bstar":-7.4166e-7,"rev_number":10127,"period_min":93.848242307439,"perigee_km":462.09262322911,"apogee_km":463.36091937231,"semimajor_km":6840.8637713007,"source":"CELESTRAK","updated_at":"2026-05-25T13:38:19.271011Z"}}}